Location: Gisborne
(38.6530°S, 178.0040°E)
Time: 01:26:11
(UTC+13:00)

Lacrosse 5 - Pass Details

Date: 24 January 2019
Orbit: 715 x 724 km, 57.0° (Epoch: 16 October)

Event Time Altitude Azimuth Distance (km) Brightness Sun altitude
Rises 21:09:44 0° 222° (SW) 3,161 7.0 -7.7°
Reaches altitude 10° 21:12:09 10° 220° (SW) 2,233 5.8 -8.1°
Maximum altitude 21:17:19 77° 133° (SE) 748 1.9 -8.9°
Enters shadow 21:22:01 12° 47° (NE) 2,057 3.6 -9.7°
